Guymon, OK

7:34 AM CST on January 17, 2017 (GMT -0600)
Guymon Municipal

Weather History for KGUY - August, 2014

Change the Weather History Date:

Sunday, August 31, 2014

  Actual Average Record
Temperature  
Mean Temperature 85 °F 76 °F  
Max Temperature 105 °F 90 °F 105 °F (2011)
Min Temperature 65 °F 62 °F 57 °F (2012)
Degree Days  
Heating Degree Days 0 0  
Month to date heating degree days 0 0  
Since 1 June heating degree days 9 9  
Since 1 July heating degree days 4 1  
Cooling Degree Days 20 11  
Month to date cooling degree days 493 407  
Year to date cooling degree days 1446 1249  
Since 1 June cooling degree days 1268 1141  
Growing Degree Days 34 (Base 50)    
Moisture  
Dew Point 51 °F    
Average Humidity 43    
Maximum Humidity 73    
Minimum Humidity 12    
Precipitation  
Precipitation T in 0.10 in 0.02 in (2016)
Month to date precipitation 0.73 2.92  
Year to date precipitation 8.44 14.77  
Snow  
Snow 0.00 in - - ()
Month to date snowfall 0.0  
Since 1 June snowfall 0.0  
Since 1 July snowfall 0.0  
Snow Depth 0.00 in    
Sea Level Pressure  
Sea Level Pressure 29.64 in    
Wind  
Wind Speed 17 mph (SSW)    
Max Wind Speed 33 mph    
Max Gust Speed 42 mph    
Visibility 10 miles    
Events      
T = Trace of Precipitation, MM = Missing Value Source: NWS Daily Summary

Daily Weather History Graph

Daily Weather History Graph

Search for Another Location

Airport or City:

Trip Planner

Search our weather history database for the weather conditions in past years. The results will help you decide how hot, cold, wet, or windy it might be!

Date:

Astronomy

Aug. 31, 2014 Rise Set
Actual Time 7:16 AM CDT 8:15 PM CDT
Civil Twilight 6:49 AM CDT 8:42 PM CDT
Nautical Twilight 6:18 AM CDT 9:13 PM CDT
Astronomical Twilight 5:45 AM CDT 9:45 PM CDT
Moon 12:55 PM CDT (8/31) 11:42 PM CDT (8/31)
Length of Visible Light 13h 52m
Length of Day
12h 59m
Waxing Crescent, 32% of the Moon is Illuminated
Aug 31
Waxing Crescent
Sep 2
First Quarter
Sep 8
Full
Sep 15
Last Quarter
Sep 24
New

Hourly Weather History & Observations

Time (CDT) Temp. Heat Index Dew Point Humidity Pressure Visibility Wind Dir Wind Speed Gust Speed Precip Events Conditions
12:53 AM 78.1 °F - 55.0 °F 45% 29.73 in 10.0 mi South 15.0 mph - N/A   Clear
1:53 AM 75.9 °F - 55.0 °F 48% 29.71 in 10.0 mi South 16.1 mph - N/A   Clear
2:53 AM 73.9 °F - 55.0 °F 52% 29.71 in 10.0 mi South 12.7 mph - N/A   Clear
3:53 AM 72.0 °F - 55.9 °F 57% 29.73 in 10.0 mi Calm Calm - 0.00 in   Clear
4:53 AM 71.1 °F - 55.9 °F 59% 29.73 in 10.0 mi South 6.9 mph - N/A   Clear
5:53 AM 68.0 °F - 55.0 °F 63% 29.73 in 10.0 mi South 6.9 mph - N/A   Clear
6:53 AM 64.9 °F - 55.0 °F 70% 29.73 in 10.0 mi SSE 8.1 mph - N/A   Clear
7:53 AM 66.0 °F - 55.0 °F 68% 29.73 in 10.0 mi South 6.9 mph - N/A   Clear
8:53 AM 73.9 °F - 57.0 °F 55% 29.72 in 10.0 mi South 11.5 mph - N/A   Clear
9:53 AM 81.0 °F 81.1 °F 57.9 °F 45% 29.69 in 10.0 mi SSW 19.6 mph 26.5 mph N/A   Clear
10:53 AM 89.1 °F 87.3 °F 55.9 °F 32% 29.68 in 10.0 mi SW 20.7 mph 27.6 mph N/A   Clear
11:53 AM 93.0 °F 91.1 °F 55.0 °F 28% 29.65 in 10.0 mi SSW 18.4 mph 26.5 mph N/A   Clear
12:53 PM 97.0 °F 94.6 °F 54.0 °F 23% 29.62 in 10.0 mi SW 21.9 mph 29.9 mph N/A   Clear
1:53 PM 102.0 °F - 48.9 °F 17% 29.59 in 10.0 mi SW 20.7 mph 27.6 mph N/A   Clear
2:53 PM 104.0 °F - 44.1 °F 13% 29.57 in 10.0 mi WSW 20.7 mph 33.4 mph N/A   Clear
3:53 PM 104.0 °F - 44.1 °F 13% 29.55 in 10.0 mi SSW 31.1 mph 39.1 mph N/A   Clear
4:53 PM 104.0 °F - 42.1 °F 12% 29.52 in 10.0 mi SW 28.8 mph 39.1 mph N/A   Clear
5:53 PM 102.0 °F - 41.0 °F 12% 29.52 in 10.0 mi SW 26.5 mph 35.7 mph N/A   Clear
6:53 PM 100.9 °F - 41.0 °F 13% 29.50 in 10.0 mi SSW 26.5 mph 32.2 mph N/A   Clear
7:53 PM 96.1 °F - 39.9 °F 14% 29.51 in 10.0 mi SSW 17.3 mph 26.5 mph N/A   Clear
9:53 PM 87.1 °F - 42.1 °F 21% 29.52 in 10.0 mi SSW 18.4 mph - N/A   Clear
10:53 PM 87.1 °F - 42.1 °F 21% 29.56 in 10.0 mi West 15.0 mph - N/A   Clear
11:08 PM 78.1 °F - 59.0 °F 52% 29.75 in 10.0 mi North 13.8 mph - N/A   Clear
11:53 PM 73.9 °F - 59.0 °F 59% 29.62 in 10.0 mi NNE 17.3 mph - N/A   Clear